Fort Smith, Northwest Territories

10:07 AM MDT on April 23, 2018 (GMT -0600)
Fort Smith

Weather History for CYSM - March, 2013

Change the Weather History Date:

Saturday, March 16, 2013

  Actual Average Record
Temperature  
Mean Temperature -16 °F -  
Max Temperature 4 °F 31 °F 41 °F (1999)
Min Temperature -36 °F 7 °F -36 °F (2007)
Degree Days  
Heating Degree Days 81    
Moisture  
Dew Point -21 °F    
Average Humidity 69    
Maximum Humidity 92    
Minimum Humidity 39    
Precipitation  
Precipitation 0.00 in 0.02 in - ()
Sea Level Pressure  
Sea Level Pressure 30.42 in    
Wind  
Wind Speed 1 mph ()    
Max Wind Speed 10 mph    
Max Gust Speed -    
Visibility 15.0 miles    
Events      
Averages and records for this station are not official NWS values.
T = Trace of Precipitation, MM = Missing Value Source: Averaged Metar Reports

Daily Weather History Graph

Daily Weather History Graph

Search for Another Location

Airport or City:

Astronomy

Mar. 16, 2013 Rise Set
Actual Time 7:40 AM MDT 7:33 PM MDT
Civil Twilight 6:58 AM MDT 8:15 PM MDT
Nautical Twilight 6:09 AM MDT 9:04 PM MDT
Astronomical Twilight 5:17 AM MDT 9:57 PM MDT
Moon 8:54 AM MDT (3/16) 1:04 AM MDT (3/16)
Length of Visible Light 13h 16m
Length of Day
11h 53m
Waxing Crescent, 23% of the Moon is Illuminated
Mar 16
Waxing Crescent
Mar 19
First Quarter
Mar 27
Full
Apr 2
Last Quarter
Apr 10
New

Hourly Weather History & Observations

Time (MDT) Temp. Windchill Dew Point Humidity Pressure Visibility Wind Dir Wind Speed Gust Speed Precip Events Conditions
12:00 AM -20 °F - -23 °F 77% 30.60 in 15 mi Calm Calm - -   Partly Cloudy
12:00 AM -20.2 °F - -23.8 °F 83% 30.60 in 15.0 mi Calm Calm - N/A   Clear
1:00 AM -25.6 °F - -27.4 °F 91% 30.59 in 15.0 mi Calm Calm - N/A   Clear
2:00 AM -25.6 °F - -31.0 °F 76% 30.58 in 15.0 mi Calm Calm - N/A   Clear
3:00 AM -27.4 °F - -34.6 °F 69% 30.58 in 15.0 mi Calm Calm - N/A   Clear
4:00 AM -31.0 °F - -32.8 °F 91% 30.57 in 15.0 mi Calm Calm - N/A   Clear
5:00 AM -32.8 °F - -34.6 °F 91% 30.55 in 15.0 mi Calm Calm - N/A   Clear
6:00 AM -35 °F - - % 30.53 in 15 mi Calm Calm - -  
6:00 AM -34.6 °F - - N/A% 30.53 in 15.0 mi Calm Calm - N/A   Clear
7:00 AM -34.6 °F - - N/A% 30.52 in 15.0 mi Calm Calm - N/A   Clear
8:00 AM -36.4 °F - - N/A% 30.50 in 15.0 mi Calm Calm - N/A   Partly Cloudy
9:00 AM -34.6 °F - - N/A% 30.49 in 15.0 mi Calm Calm - N/A   Partly Cloudy
10:00 AM -20.2 °F - -22.0 °F 91% 30.48 in 15.0 mi Calm Calm - N/A   Partly Cloudy
11:00 AM -13.0 °F -28.6 °F -14.8 °F 92% 30.45 in 15.0 mi West 6.9 mph - N/A   Partly Cloudy
12:00 PM -8 °F - -18 °F 44% 30.42 in 15 mi SW 3.5 mph - -   Clear
12:00 PM -7.6 °F -16.5 °F -18.4 °F 59% 30.42 in 15.0 mi SW 3.5 mph - N/A   Mostly Cloudy
1:00 PM -5.8 °F -14.5 °F -20.2 °F 50% 30.39 in 15.0 mi SSW 3.5 mph - N/A   Mostly Cloudy
2:00 PM -4.0 °F - -18.4 °F 50% 30.36 in 15.0 mi Calm Calm - N/A   Mostly Cloudy
3:00 PM -0.4 °F -12.0 °F -16.6 °F 46% 30.32 in 15.0 mi SW 5.8 mph - N/A   Scattered Clouds
4:00 PM 1.4 °F - -18.4 °F 39% 30.29 in 15.0 mi Calm Calm - N/A   Scattered Clouds
5:00 PM -0.4 °F - -13.0 °F 55% 30.27 in 15.0 mi Calm Calm - N/A   Partly Cloudy
6:00 PM -2 °F - -11 °F 50% 30.25 in 15 mi WNW 9.2 mph - -   Clear
6:00 PM -2.2 °F -18.9 °F -11.2 °F 66% 30.25 in 15.0 mi West 10.4 mph - N/A   Partly Cloudy
7:00 PM -2.2 °F -10.4 °F -11.2 °F 66% 30.23 in 15.0 mi WNW 3.5 mph - N/A   Scattered Clouds
8:00 PM -9.4 °F - -18.4 °F 65% 30.22 in 15.0 mi Calm Calm - N/A   Partly Cloudy
9:00 PM -13.0 °F - -16.6 °F 84% 30.22 in 15.0 mi Calm Calm - N/A   Clear
10:00 PM -18.4 °F - -22.0 °F 84% 30.21 in 15.0 mi Calm Calm - N/A   Clear